Flag for Germany Weather past 2 weeks in Königswinter, North Rhine-Westphalia, Germany

Now
70 °F

Scattered clouds.


Feels Like: 70 °F
Forecast: 62 / 77 °F
Wind: 3 mph from Southeast

Location: Bonn-Hangelar

Current Time: Aug 2, 2014 at 8:55:16 AM

Latest Report: Aug 2, 2014 at 8:00 AM


Visibility: 25 mi

Pressure: 29.72 "Hg

Humidity: 62%

Dew point: 56 °F

Location of KönigswinterLocation

Historic Weather in Königswinter — Graph

°F

Königswinter temperature yesterday

Maximum temperature yesterday: 80 °F (at 5:00 PM)
Minimum temperature yesterday: 61 °F (at 5:00 AM)
Average temperature yesterday: 71 °F

Past Weeks' High & Low Weather Summary

 TemperatureHumidityPressure
High93 °F (Jul 19, 5:00 PM)100% (Jul 22, 10:00 AM)30.09 "Hg (Jul 22, 10:00 AM)
Low53 °F (Jul 31, 6:00 AM)23% (Jul 19, 3:00 PM)29.72 "Hg (Aug 2, 5:00 AM)
Average69 °F74%29.92 "Hg
* Reported Jul 18 7:00 AM — Aug 2 7:00 AM, Königswinter, Weather by CustomWeather, © 2014

Note: Actual official high and low records may vary slightly from our data, if they occured in-between our weather recording intervals... More about our weather records

Advertising

Königswinter weather history for previous 24 hours

 ConditionsComfort  
Time TempWeatherWind HumidityBarometerVisibility
7:00 AM
Aug 2
68 °FPartly sunny.5 mph64%29.72 "Hg28 mi
6:00 AM67 °FScattered clouds.3 mph67%29.72 "Hg25 mi
5:00 AM70 °FOvercast.7 mph61%29.72 "Hg22 mi
4:00 AM69 °FPassing clouds.6 mph64%29.74 "Hg19 mi
3:00 AM69 °FClear.6 mph67%29.76 "Hg19 mi
2:00 AM66 °FOvercast.5 mph75%29.77 "Hg14 mi
1:00 AM68 °FPassing clouds.1 mph74%29.78 "Hg11 mi
12:00 AM69 °FOvercast.1 mph70%29.78 "Hg12 mi
11:00 PM
Aug 1
70 °FPassing clouds.1 mph67%29.78 "Hg14 mi
10:00 PM71 °FOvercast.2 mph61%29.78 "Hg16 mi
9:00 PM74 °FScattered clouds.2 mph55%29.77 "Hg22 mi
8:00 PM76 °FPartly sunny.2 mph51%29.77 "Hg28 mi
7:00 PM78 °FPartly sunny.2 mph44%29.78 "Hg28 mi
6:00 PM80 °FPartly sunny.2 mph40%29.78 "Hg28 mi
5:00 PM80 °FPartly sunny.1 mph44%29.79 "Hg28 mi
4:00 PM79 °FPartly sunny.2 mph42%29.80 "Hg28 mi
3:00 PM78 °FPartly sunny.2 mph45%29.82 "Hg28 mi
2:00 PM76 °FScattered clouds.3 mph44%29.83 "Hg25 mi
1:00 PM76 °FScattered clouds.5 mph41%29.84 "Hg25 mi
12:00 PM74 °FPartly sunny.5 mph51%29.85 "Hg25 mi
11:00 AM74 °FOvercast.5 mph56%29.86 "Hg25 mi
10:00 AM73 °FScattered clouds.5 mph54%29.86 "Hg25 mi
9:00 AM72 °FPassing clouds.2 mph59%29.86 "Hg25 mi
8:00 AM65 °FScattered clouds.3 mph76%29.87 "Hg25 mi
Weather by CustomWeather, © 2014

See weather overviewHow to use our weather pages